Location: Newark
(50.4348°N, 30.5552°E)
Time: 14:40:33
(UTC+00:00)

Vanguard 3 - Pass Details

Date: 21 January 2020
Orbit: 508 x 3263 km, 33.3° (Epoch: 28 February)

Event Time Altitude Azimuth Distance (km) Brightness Sun altitude
Rises 21:03:38 0° 266° (W) 6,551 12.0 -56.8°
Reaches altitude 10° 21:09:36 10° 256° (WSW) 5,078 11.2 -57.2°
Enters shadow 21:11:11 13° 251° (WSW) 4,694 11.0 -57.4°
